Location: Unspecified
(44.0704°N, 88.6889°W)
Time: 15:10:34
(UTC+02:00)

Altair - Pass Details

Date: 22 June 2019
Orbit: 1501 x 1683 km, 47.2° (Epoch: 24 August)

Event Time Altitude Azimuth Distance (km) Brightness Sun altitude
Rises 11:02:33 0° 294° (WNW) 4,881 9.9 -10.2°
Reaches altitude 10° 11:06:07 10° 285° (WNW) 3,911 9.4 -9.8°
Maximum altitude 11:14:30 32° 228° (SW) 2,608 8.2 -8.7°
Drops below altitude 10° 11:22:59 10° 170° (S) 3,933 9.3 -7.7°
Sets 11:26:36 0° 161° (SSE) 4,912 9.9 -7.2°
